TimeCDT,TemperatureF,Dew PointF,Humidity,Sea Level PressureIn,VisibilityMPH,Wind Direction,Wind SpeedMPH,Gust SpeedMPH,PrecipitationIn,Events,Conditions,WindDirDegrees,DateUTC
12:52 AM,78.1,75.9,93,29.80,10.0,North,4.6,-,N/A,,Mostly Cloudy,360,2010-09-06 05:52:00
1:52 AM,78.1,75.9,93,29.78,10.0,Calm,Calm,-,N/A,,Scattered Clouds,0,2010-09-06 06:52:00
2:52 AM,75.9,75.0,97,29.77,10.0,Calm,Calm,-,N/A,,Clear,0,2010-09-06 07:52:00
3:52 AM,75.9,75.0,97,29.77,10.0,Calm,Calm,-,N/A,,Clear,0,2010-09-06 08:52:00
4:52 AM,77.0,75.9,96,29.76,10.0,NE,4.6,-,0.00,,Mostly Cloudy,40,2010-09-06 09:52:00
4:59 AM,77.0,75.2,94,29.75,10.0,NE,3.5,-,N/A,,Mostly Cloudy,50,2010-09-06 09:59:00
5:09 AM,77.0,75.2,94,29.75,10.0,NE,3.5,-,N/A,,Scattered Clouds,40,2010-09-06 10:09:00
5:52 AM,75.9,75.0,97,29.75,10.0,NE,4.6,-,N/A,,Mostly Cloudy,50,2010-09-06 10:52:00
6:52 AM,77.0,75.0,94,29.77,10.0,Calm,Calm,-,N/A,,Overcast,0,2010-09-06 11:52:00
7:52 AM,77.0,75.9,96,29.78,10.0,ENE,3.5,-,N/A,,Mostly Cloudy,60,2010-09-06 12:52:00
8:52 AM,79.0,75.9,90,29.79,10.0,NE,3.5,-,N/A,,Partly Cloudy,40,2010-09-06 13:52:00
9:52 AM,79.0,75.9,90,29.83,10.0,NE,6.9,-,0.00,,Overcast,50,2010-09-06 14:52:00
10:32 AM,78.8,75.2,89,29.84,10.0,East,16.1,-,0.00,,Overcast,90,2010-09-06 15:32:00
10:45 AM,77.0,75.2,94,29.84,1.8,East,10.4,-,0.06,Rain,Heavy Rain,90,2010-09-06 15:45:00
10:52 AM,75.9,75.0,97,29.84,3.0,East,6.9,-,0.08,Rain,Rain,100,2010-09-06 15:52:00
11:23 AM,75.2,75.2,100,29.84,3.0,ESE,8.1,-,0.06,Rain,Rain,120,2010-09-06 16:23:00
11:52 AM,75.9,75.0,97,29.82,6.0,ESE,3.5,-,0.12,Rain,Rain,120,2010-09-06 16:52:00
12:10 PM,77.0,75.2,94,29.81,10.0,Calm,Calm,-,0.00,Rain,Rain,0,2010-09-06 17:10:00
12:52 PM,77.0,75.0,94,29.80,10.0,Calm,Calm,-,0.00,Rain,Rain,0,2010-09-06 17:52:00
1:52 PM,81.0,75.9,85,29.78,10.0,NNE,4.6,-,0.00,Rain,Rain,30,2010-09-06 18:52:00
2:52 PM,84.0,77.0,79,29.76,10.0,ENE,12.7,-,0.00,Rain,Rain,60,2010-09-06 19:52:00
3:52 PM,82.9,77.0,82,29.75,10.0,ENE,13.8,-,0.00,Rain,Rain,60,2010-09-06 20:52:00
4:52 PM,84.0,77.0,79,29.73,10.0,ENE,12.7,-,0.00,Rain,Rain,60,2010-09-06 21:52:00
5:01 PM,82.4,78.8,89,29.73,10.0,NE,15.0,-,0.00,Rain,Rain,50,2010-09-06 22:01:00
5:45 PM,80.6,78.8,94,29.72,7.0,ENE,13.8,21.9,0.00,Rain,Rain,60,2010-09-06 22:45:00
5:52 PM,80.1,78.1,94,29.72,8.0,ENE,13.8,-,0.01,Rain,Rain,60,2010-09-06 22:52:00
6:04 PM,80.6,78.8,94,29.72,8.0,NE,12.7,-,0.00,Rain,Rain,50,2010-09-06 23:04:00
6:52 PM,80.1,78.1,94,29.72,10.0,ENE,17.3,-,0.00,Rain,Rain,60,2010-09-06 23:52:00
7:52 PM,78.1,75.9,93,29.70,10.0,NE,9.2,-,0.02,Rain,Rain,50,2010-09-07 00:52:00
8:47 PM,78.8,77.0,94,29.72,2.5,ENE,17.3,-,0.05,Rain,Rain,60,2010-09-07 01:47:00
8:52 PM,78.1,77.0,96,29.73,1.8,ENE,13.8,-,0.14,Rain,Rain,70,2010-09-07 01:52:00
9:00 PM,78.8,75.2,89,29.72,2.0,ENE,23.0,29.9,0.04,Rain,Rain,70,2010-09-07 02:00:00
9:11 PM,77.0,75.2,94,29.72,8.0,ENE,13.8,-,0.05,Rain,Rain,70,2010-09-07 02:11:00
9:52 PM,78.1,75.9,93,29.71,8.0,NE,12.7,-,0.06,Rain,Rain,40,2010-09-07 02:52:00
10:00 PM,78.8,75.2,89,29.70,10.0,NNE,13.8,19.6,0.00,Rain,Rain,30,2010-09-07 03:00:00
10:07 PM,78.8,75.2,89,29.71,10.0,NNE,10.4,-,0.00,Rain,Rain,30,2010-09-07 03:07:00
10:19 PM,78.8,77.0,94,29.70,10.0,NE,15.0,-,0.00,Rain,Rain,50,2010-09-07 03:19:00
10:30 PM,78.8,77.0,94,29.69,10.0,NE,15.0,-,0.00,Rain,Rain,50,2010-09-07 03:30:00
10:44 PM,80.6,75.2,84,29.69,7.0,East,23.0,35.7,0.00,Rain,Rain,90,2010-09-07 03:44:00
10:52 PM,79.0,75.9,90,29.68,4.0,East,24.2,34.5,0.03,Rain,Rain,80,2010-09-07 03:52:00
10:55 PM,78.8,75.2,89,29.67,2.5,East,21.9,34.5,0.02,Rain,Rain,80,2010-09-07 03:55:00
11:04 PM,78.8,77.0,94,29.66,4.0,ENE,24.2,34.5,0.03,Rain,Rain,70,2010-09-07 04:04:00
11:42 PM,78.8,75.2,89,29.59,2.0,East,40.3,51.8,0.13,Rain,Rain,80,2010-09-07 04:42:00
11:52 PM,78.1,75.9,93,29.55,3.0,ENE,42.6,52.9,0.15,Rain,Rain,70,2010-09-07 04:52:00